CW6090 Weather Reports


time (UTC)temp
C
wind
direction
speed
KPH
gust
KPH
rain 1hr
cm
rain 24hr
cm
rain mn
cm
humidity
%
barometer
mb
20260906093057 17 296 0.0 0.0 0.00 0.00 0.00 99 1015.4
20260906092552 17 295 0.0 0.0 0.00 0.00 0.00 99 1015.8
20260906092047 17 295 0.0 0.0 0.00 0.00 0.00 99 1015.5
20260906091543 17 295 0.0 0.0 0.00 0.00 0.00 99 1015.3
20260906091039 17 296 0.0 0.0 0.00 0.00 0.00 99 1015.4
20260906090539 17 296 0.0 0.0 0.00 0.00 0.00 99 1015.4
20260906090040 17 296 0.0 0.0 0.00 0.00 0.00 99 1015.5
20260906085538 17 296 0.0 0.0 0.00 0.00 0.00 99 1015.4
20260906085038 17 298 0.0 0.0 0.00 0.00 0.00 99 1015.4
20260906084533 17 298 0.0 0.0 0.00 0.00 0.00 99 1015.6
20260906084031 17 301 0.0 0.0 0.00 0.00 0.00 99 1015.5
20260906083528 17 301 0.0 0.0 0.00 0.00 0.00 99 1015.7
20260906083027 17 301 0.0 0.0 0.00 0.00 0.00 99 1015.5
20260906082522 17 301 0.0 0.0 0.00 0.00 0.00 99 1015.5
20260906082018 17 301 0.0 0.0 0.00 0.00 0.00 99 1015.6
20260906081514 17 296 0.0 0.0 0.00 0.00 0.00 99 1015.5
20260906081009 17 289 0.0 1.6 0.00 0.00 0.00 99 1015.6
20260906080506 17 311 1.6 3.2 0.00 0.00 0.00 99 1015.6
20260906080001 17 316 3.2 3.2 0.00 0.00 0.00 99 1015.7
20260906075455 17 307 0.0 1.6 0.00 0.00 0.00 99 1015.6
20260906074951 17 295 0.0 0.0 0.00 0.00 0.00 99 1015.7
20260906074451 18 299 0.0 0.0 0.00 0.00 0.00 99 1015.7
20260906073949 18 308 1.6 1.6 0.00 0.00 0.00 99 1015.7
20260906073444 18 305 0.0 1.6 0.00 0.00 0.00 99 1016.1
20260906072941 18 313 1.6 3.2 0.00 0.00 0.00 99 1016.0
20260906072435 18 303 0.0 0.0 0.00 0.00 0.00 99 1016.0
20260906071931 17 308 1.6 1.6 0.00 0.00 0.00 99 1016.1
20260906071427 18 305 1.6 1.6 0.00 0.00 0.00 99 1016.1
20260906070923 18 307 1.6 1.6 0.00 0.00 0.00 99 1016.0
20260906070419 18 307 1.6 1.6 0.00 0.00 0.00 99 1015.7
20260906065915 18 306 1.6 1.6 0.00 0.00 0.00 99 1015.8
20260906065408 18 321 1.6 1.6 0.00 0.00 0.00 99 1015.8
20260906064904 18 308 1.6 1.6 0.00 0.00 0.00 99 1016.0
20260906064401 18 294 0.0 1.6 0.00 0.00 0.00 99 1016.0
20260906063900 18 316 1.6 1.6 0.00 0.00 0.00 99 1016.1
20260906063355 18 300 0.0 0.0 0.00 0.00 0.00 99 1016.2
20260906062850 18 302 0.0 0.0 0.00 0.00 0.00 99 1016.4
20260906062349 18 302 0.0 0.0 0.00 0.00 0.00 99 1016.3
20260906061845 18 303 0.0 1.6 0.00 0.00 0.00 99 1016.2
20260906061342 18 302 0.0 0.0 0.00 0.00 0.00 99 1016.3
20260906060836 17 302 0.0 1.6 0.00 0.00 0.00 99 1016.5
20260906060334 17 294 0.0 1.6 0.00 0.00 0.00 99 1016.5
20260906055829 17 301 0.0 0.0 0.00 0.00 0.00 99 1016.6
20260906055325 17 301 0.0 0.0 0.00 0.00 0.00 99 1016.5
20260906054820 17 301 0.0 0.0 0.00 0.00 0.00 99 1016.7
20260906054315 18 301 0.0 0.0 0.00 0.00 0.00 99 1016.7
20260906053812 18 305 0.0 1.6 0.00 0.00 0.00 99 1016.9
20260906053307 17 301 0.0 0.0 0.00 0.00 0.00 99 1016.9
20260906052802 17 301 0.0 0.0 0.00 0.00 0.00 99 1017.0
20260906052258 18 301 0.0 0.0 0.00 0.00 0.00 99 1016.8
20260906051755 18 306 0.0 1.6 0.00 0.00 0.00 99 1016.8
20260906051254 18 306 0.0 1.6 0.00 0.00 0.00 99 1016.8
20260906050750 18 307 1.6 1.6 0.00 0.00 0.00 99 1016.9
20260906050245 18 306 1.6 1.6 0.00 0.00 0.00 99 1016.7
20260906045744 18 314 1.6 1.6 0.00 0.00 0.00 99 1016.6
20260906045238 18 308 1.6 1.6 0.00 0.00 0.00 99 1017.0
20260906044734 18 306 0.0 1.6 0.00 0.00 0.00 99 1016.9
20260906044229 18 306 0.0 1.6 0.00 0.00 0.00 99 1017.0
20260906043726 18 306 0.0 1.6 0.00 0.00 0.00 99 1017.2
20260906043221 18 308 1.6 1.6 0.00 0.00 0.00 99 1016.8
20260906042721 18 306 1.6 1.6 0.00 0.00 0.00 99 1017.2
20260906042220 18 304 0.0 1.6 0.00 0.00 0.00 99 1017.0
20260906041715 18 306 1.6 1.6 0.00 0.00 0.00 99 1017.0
20260906041211 18 304 1.6 1.6 0.00 0.00 0.00 99 1017.3
20260906040706 18 309 1.6 1.6 0.00 0.00 0.00 99 1017.2
20260906040201 18 299 0.0 0.0 0.00 0.00 0.00 99 1016.9
20260906035657 18 299 1.6 1.6 0.00 0.03 0.03 99 1016.9
20260906035152 18 305 0.0 0.0 0.00 0.03 0.03 99 1017.0
20260906034647 18 305 0.0 0.0 0.00 0.03 0.03 99 1016.9
20260906034141 18 309 1.6 1.6 0.00 0.03 0.03 99 1017.0
20260906033637 18 307 0.0 1.6 0.00 0.03 0.03 99 1017.0
20260906033131 18 308 1.6 1.6 0.00 0.03 0.03 99 1016.9
20260906032628 18 304 0.0 0.0 0.00 0.03 0.03 99 1016.9
20260906032128 18 304 0.0 0.0 0.00 0.03 0.03 99 1016.9
20260906031623 18 304 0.0 0.0 0.00 0.03 0.03 99 1016.6
20260906031119 19 304 0.0 1.6 0.00 0.03 0.03 99 1016.9
20260906030618 19 304 1.6 1.6 0.00 0.03 0.03 99 1017.2
20260906030114 19 304 0.0 0.0 0.00 0.03 0.03 99 1017.3
20260906025613 18 304 0.0 0.0 0.00 0.03 0.03 99 1017.2
20260906025111 19 304 0.0 0.0 0.00 0.03 0.03 99 1017.3
20260906024607 19 304 0.0 1.6 0.00 0.03 0.03 99 1017.4
20260906024102 19 304 0.0 1.6 0.00 0.03 0.03 98 1017.2
20260906023557 19 304 0.0 0.0 0.00 0.03 0.03 98 1017.0
20260906023051 19 308 0.0 1.6 0.00 0.03 0.03 98 1017.2
20260906022547 19 306 1.6 1.6 0.00 0.03 0.03 98 1016.9
20260906022042 19 308 0.0 1.6 0.00 0.03 0.03 98 1017.0
20260906021537 19 307 0.0 1.6 0.00 0.03 0.03 98 1016.8
20260906021036 19 307 0.0 1.6 0.00 0.03 0.03 98 1017.2
20260906020536 19 310 1.6 1.6 0.00 0.03 0.03 98 1017.0
20260906020036 19 309 1.6 1.6 0.00 0.03 0.03 98 1017.3
20260906015535 19 303 1.6 1.6 0.00 0.03 0.03 97 1017.0
20260906015035 20 307 0.0 0.0 0.00 0.03 0.03 97 1016.7
20260906014530 20 307 0.0 1.6 0.00 0.03 0.03 96 1016.8
20260906014026 20 307 0.0 0.0 0.00 0.03 0.03 95 1017.0
20260906013521 20 307 0.0 0.0 0.00 0.03 0.03 95 1016.9
20260906013017 20 308 0.0 1.6 0.00 0.03 0.03 95 1016.9
20260906012512 20 308 1.6 1.6 0.00 0.03 0.03 94 1016.8
20260906012011 20 308 0.0 1.6 0.00 0.03 0.03 94 1016.7
20260906011508 20 308 0.0 1.6 0.00 0.03 0.03 94 1016.6
20260906011008 20 311 1.6 1.6 0.00 0.03 0.03 93 1016.9
20260906010503 20 316 1.6 3.2 0.00 0.03 0.03 92 1016.7
20260906005959 21 311 1.6 3.2 0.00 0.03 0.03 91 1016.7
20260906005458 21 313 1.6 3.2 0.00 0.03 0.03 91 1016.4
20260906004957 21 311 1.6 1.6 0.00 0.03 0.03 91 1016.4
20260906004457 20 320 1.6 3.2 0.00 0.03 0.03 91 1016.5
20260906003952 20 312 1.6 3.2 0.00 0.03 0.03 91 1016.4
20260906003447 21 311 1.6 3.2 0.00 0.03 0.03 90 1016.3
20260906002942 21 311 1.6 3.2 0.00 0.03 0.03 89 1016.1
20260906002442 21 316 1.6 3.2 0.00 0.03 0.03 87 1016.2
20260906001938 21 308 1.6 1.6 0.00 0.03 0.03 87 1016.1
20260906001433 21 312 1.6 3.2 0.00 0.03 0.03 87 1016.0
20260906000923 21 326 1.6 3.2 0.00 0.03 0.03 87 1016.1
20260906000418 21 318 1.6 3.2 0.00 0.03 0.03 87 1016.1
20260905235913 21 326 3.2 3.2 0.00 0.03 0.03 87 1015.8
20260905235407 21 312 1.6 3.2 0.00 0.03 0.03 86 1015.8
20260905234902 22 321 3.2 3.2 0.00 0.03 0.03 84 1016.0
20260905234357 22 310 1.6 1.6 0.00 0.03 0.03 84 1015.6
20260905233852 22 311 1.6 1.6 0.00 0.03 0.03 83 1016.0
20260905233347 22 310 1.6 3.2 0.00 0.03 0.03 82 1015.8
20260905232846 22 308 1.6 3.2 0.00 0.03 0.03 83 1016.0
20260905232343 23 308 1.6 1.6 0.00 0.03 0.03 81 1015.7
20260905231838 23 309 1.6 1.6 0.00 0.03 0.03 80 1015.7
20260905231338 23 308 1.6 1.6 0.00 0.03 0.03 79 1015.6
20260905230835 23 306 0.0 3.2 0.00 0.03 0.03 79 1015.7
20260905230333 23 301 0.0 1.6 0.00 0.03 0.03 77 1016.0
20260905225832 24 306 1.6 1.6 0.00 0.03 0.03 77 1016.1
20260905225327 24 309 1.6 3.2 0.00 0.03 0.03 77 1016.0
20260905224827 24 307 1.6 1.6 0.00 0.03 0.03 75 1015.8
20260905224323 25 305 1.6 1.6 0.00 0.03 0.03 73 1015.8
20260905223818 25 307 0.0 3.2 0.00 0.03 0.03 72 1016.0
20260905223316 25 306 1.6 3.2 0.00 0.03 0.03 71 1016.1
20260905222811 25 303 1.6 1.6 0.00 0.03 0.03 69 1016.1
20260905222309 25 303 0.0 1.6 0.00 0.03 0.03 69 1016.1
20260905221806 26 305 1.6 3.2 0.00 0.03 0.03 69 1016.0
20260905221302 26 316 1.6 3.2 0.00 0.03 0.03 67 1016.0
20260905220757 26 314 1.6 3.2 0.00 0.03 0.03 68 1016.1
20260905220254 26 303 0.0 3.2 0.00 0.03 0.03 64 1016.1
20260905215753 26 313 1.6 1.6 0.00 0.03 0.03 64 1016.1
20260905215249 26 305 1.6 3.2 0.00 0.03 0.03 63 1016.2
20260905214744 27 304 1.6 1.6 0.00 0.03 0.03 63 1016.1
20260905214240 27 315 1.6 3.2 0.00 0.03 0.03 64 1015.8
20260905213735 27 309 1.6 3.2 0.00 0.03 0.03 62 1015.8
20260905213231 27 306 1.6 3.2 0.00 0.03 0.03 58 1016.0
20260905212726 27 313 1.6 3.2 0.00 0.03 0.03 65 1015.8
20260905212225 27 313 1.6 3.2 0.00 0.03 0.03 63 1016.0
20260905211725 27 308 1.6 3.2 0.00 0.03 0.03 66 1015.7
20260905211221 28 308 0.0 4.8 0.00 0.03 0.03 57 1015.8
20260905210717 28 22 1.6 3.2 0.00 0.03 0.03 60 1015.7
20260905210217 28 302 1.6 1.6 0.00 0.03 0.03 67 1015.7
20260905205716 27 297 1.6 3.2 0.00 0.03 0.03 68 1015.8
20260905205210 27 275 1.6 3.2 0.00 0.03 0.03 71 1016.0
20260905204710 27 288 1.6 1.6 0.00 0.03 0.03 68 1015.8
20260905204206 26 260 3.2 3.2 0.00 0.03 0.03 68 1015.7
20260905203700 27 288 1.6 4.8 0.00 0.03 0.03 70 1016.0
20260905203155 26 295 0.0 3.2 0.00 0.03 0.03 67 1016.0
20260905202651 27 291 0.0 3.2 0.00 0.03 0.03 67 1016.1
20260905202146 27 296 0.0 1.6 0.00 0.03 0.03 68 1016.0
20260905201642 27 284 1.6 1.6 0.00 0.03 0.03 70 1015.8
20260905201141 26 294 1.6 3.2 0.00 0.03 0.03 74 1015.7
20260905200637 25 274 3.2 4.8 0.00 0.03 0.03 75 1016.1
20260905200132 25 289 0.0 3.2 0.00 0.03 0.03 81 1015.8
20260905195631 23 285 1.6 1.6 0.00 0.03 0.03 84 1015.7
20260905195126 23 285 1.6 1.6 0.00 0.03 0.03 85 1015.6
20260905194621 23 282 0.0 1.6 0.00 0.03 0.03 84 1015.8
20260905194120 23 280 1.6 3.2 0.00 0.03 0.03 85 1016.1
20260905193615 23 290 1.6 1.6 0.00 0.03 0.03 84 1016.0
20260905193110 23 274 1.6 3.2 0.00 0.03 0.03 83 1016.0
20260905192606 23 279 1.6 4.8 0.00 0.03 0.03 87 1015.8
20260905192102 23 290 0.0 1.6 0.00 0.03 0.03 84 1016.0
20260905191600 23 292 0.0 0.0 0.00 0.03 0.03 80 1015.7
20260905191059 22 310 0.0 1.6 0.00 0.03 0.03 81 1015.7
20260905190557 22 315 0.0 1.6 0.00 0.03 0.03 82 1016.0
20260905190057 22 304 0.0 1.6 0.00 0.03 0.03 84 1016.0
20260905185556 22 314 1.6 1.6 0.00 0.03 0.03 85 1015.8
20260905185056 22 299 1.6 1.6 0.00 0.03 0.03 85 1015.7
20260905184550 21 295 0.0 1.6 0.00 0.03 0.03 87 1016.3
20260905184049 21 308 0.0 1.6 0.00 0.03 0.03 90 1016.3
20260905183549 21 293 1.6 1.6 0.00 0.03 0.03 90 1016.4
20260905183044 21 300 3.2 4.8 0.00 0.03 0.03 89 1016.6
20260905182538 21 288 1.6 1.6 0.00 0.03 0.03 93 1017.0
20260905182033 20 301 0.0 0.0 0.00 0.03 0.03 92 1016.7
20260905181528 20 298 0.0 1.6 0.00 0.03 0.03 93 1017.0
20260905181027 20 293 0.0 0.0 0.00 0.03 0.03 96 1017.4
20260905180527 20 304 1.6 1.6 0.00 0.03 0.03 97 1017.5
20260905180022 20 314 1.6 3.2 0.00 0.03 0.03 98 1017.4
20260905175521 19 313 1.6 3.2 0.00 0.03 0.03 98 1017.5
20260905175017 19 312 1.6 1.6 0.00 0.03 0.03 97 1017.6
20260905174513 19 332 1.6 3.2 0.00 0.03 0.03 97 1017.8
20260905174008 19 313 1.6 3.2 0.00 0.03 0.03 97 1018.1
20260905173504 19 308 1.6 3.2 0.00 0.03 0.03 96 1018.2
20260905172959 20 286 1.6 1.6 0.18 0.03 0.03 94 1018.1
20260905172457 20 297 0.0 1.6 0.18 0.03 0.03 91 1018.8
20260905171953 20 298 0.0 1.6 0.00 0.00 0.00 89 1018.8
20260905171450 21 307 1.6 1.6 0.00 0.00 0.00 86 1019.0
20260905170946 21 295 0.0 0.0 0.00 0.00 0.00 83 1019.1
20260905170442 21 303 0.0 1.6 0.00 0.00 0.00 82 1019.2
20260905165942 22 271 1.6 3.2 0.00 0.00 0.00 80 1019.0
20260905165437 22 304 1.6 3.2 0.00 0.00 0.00 79 1019.4
20260905164932 22 297 0.0 1.6 0.00 0.00 0.00 80 1019.3
20260905164432 22 295 1.6 1.6 0.00 0.00 0.00 76 1019.4
20260905163926 22 311 1.6 3.2 0.00 0.00 0.00 77 1019.7
20260905163423 22 292 1.6 12.9 0.00 0.00 0.00 75 1019.7
20260905162919 23 329 4.8 11.3 0.00 0.00 0.00 73 1019.7
20260905162413 23 1 11.3 16.1 0.00 0.00 0.00 72 1019.6
20260905161908 25 29 4.8 11.3 0.00 0.00 0.00 74 1019.9
20260905161408 25 334 6.4 6.4 0.00 0.00 0.00 81 1019.3
20260905160906 25 317 1.6 4.8 0.00 0.00 0.00 82 1019.0
20260905160400 26 326 3.2 4.8 0.00 0.00 0.00 80 1018.8
20260905155855 26 316 3.2 3.2 0.00 0.00 0.00 78 1018.5
20260905155354 27 310 0.0 1.6 0.00 0.00 0.00 77 1018.2
20260905154853 27 304 1.6 3.2 0.00 0.00 0.00 75 1018.6
20260905154349 27 341 3.2 4.8 0.00 0.00 0.00 75 1018.7
20260905153844 27 321 1.6 4.8 0.00 0.00 0.00 75 1018.6
20260905153341 27 311 3.2 3.2 0.00 0.00 0.00 75 1018.8
20260905152840 27 267 3.2 3.2 0.00 0.00 0.00 76 1018.8
20260905152339 26 300 1.6 3.2 0.00 0.00 0.00 79 1018.6
20260905151835 26 296 0.0 3.2 0.00 0.00 0.00 80 1018.7
20260905151331 26 297 1.6 1.6 0.00 0.00 0.00 81 1018.6
20260905150830 25 328 3.2 6.4 0.00 0.00 0.00 82 1018.2
20260905150325 25 321 3.2 4.8 0.00 0.00 0.00 84 1018.4
20260905145823 25 300 0.0 1.6 0.00 0.00 0.00 82 1018.2
20260905145322 26 330 3.2 3.2 0.00 0.00 0.00 81 1018.2
20260905144821 26 301 3.2 4.8 0.00 0.00 0.00 80 1018.2
20260905144317 25 316 1.6 9.7 0.00 0.00 0.00 81 1018.2
20260905143815 25 317 3.2 4.8 0.00 0.00 0.00 81 1018.1
20260905143310 25 313 1.6 4.8 0.00 0.00 0.00 84 1018.1
20260905142809 25 315 1.6 4.8 0.00 0.00 0.00 84 1018.5
20260905142305 25 320 3.2 4.8 0.00 0.00 0.00 86 1018.5
20260905141759 25 312 0.0 1.6 0.00 0.00 0.00 86 1018.5
20260905141255 24 294 0.0 1.6 0.00 0.00 0.00 87 1018.4
20260905140751 24 282 0.0 1.6 0.00 0.00 0.00 87 1018.4
20260905140250 23 13 4.8 4.8 0.00 0.00 0.00 90 1018.5
20260905135749 23 298 0.0 3.2 0.00 0.00 0.00 93 1018.5
20260905135245 23 308 1.6 1.6 0.00 0.00 0.00 93 1018.4
20260905134745 23 292 0.0 1.6 0.00 0.00 0.00 93 1018.5
20260905134244 22 297 0.0 1.6 0.00 0.00 0.00 94 1018.4
20260905133739 22 298 0.0 0.0 0.00 0.00 0.00 95 1018.4
20260905133234 22 297 0.0 0.0 0.00 0.00 0.00 95 1018.2
20260905132733 22 303 0.0 0.0 0.00 0.00 0.00 96 1018.2
20260905132229 21 278 1.6 1.6 0.00 0.00 0.00 98 1018.5
20260905131724 21 305 0.0 1.6 0.00 0.00 0.00 99 1018.6
20260905131219 21 311 1.6 1.6 0.00 0.00 0.00 99 1018.6
20260905130714 20 309 1.6 1.6 0.00 0.00 0.00 99 1018.5
20260905130213 20 308 1.6 1.6 0.00 0.00 0.00 99 1018.6
20260905125708 20 306 1.6 1.6 0.00 0.00 0.00 99 1018.8
20260905125203 20 303 0.0 1.6 0.00 0.00 0.00 99 1018.9
20260905124700 19 298 0.0 0.0 0.00 0.00 0.00 99 1018.9
20260905124155 19 298 0.0 0.0 0.00 0.00 0.00 99 1018.8
20260905123650 19 298 0.0 0.0 0.00 0.00 0.00 99 1018.6
20260905123148 19 295 0.0 0.0 0.00 0.00 0.00 99 1018.7
20260905122647 18 302 0.0 1.6 0.00 0.00 0.00 99 1018.8
20260905122142 18 310 1.6 1.6 0.00 0.00 0.00 99 1018.6
20260905121636 18 302 0.0 1.6 0.00 0.00 0.00 99 1018.8
20260905121132 18 306 1.6 1.6 0.00 0.00 0.00 99 1018.6
20260905120631 18 305 0.0 1.6 0.00 0.00 0.00 99 1018.6
20260905120126 18 304 0.0 1.6 0.00 0.00 0.00 99 1018.6
20260905115625 18 300 0.0 0.0 0.00 0.00 0.00 99 1018.7
20260905115121 18 300 0.0 0.0 0.00 0.00 0.00 99 1018.7
20260905114620 18 302 0.0 1.6 0.00 0.00 0.00 99 1018.6
20260905114119 18 304 0.0 0.0 0.00 0.00 0.00 99 1018.5
20260905113614 18 305 0.0 0.0 0.00 0.00 0.00 99 1018.2
20260905113109 18 307 1.6 1.6 0.00 0.00 0.00 99 1018.2
20260905112604 18 309 1.6 1.6 0.00 0.00 0.00 99 1018.2
20260905112100 18 302 0.0 1.6 0.00 0.00 0.00 99 1018.1
20260905111554 18 303 0.0 1.6 0.00 0.00 0.00 99 1018.1
20260905111054 18 307 1.6 1.6 0.00 0.00 0.00 99 1018.2
20260905110553 18 304 0.0 1.6 0.00 0.00 0.00 99 1018.1
20260905110048 17 308 1.6 1.6 0.00 0.00 0.00 99 1018.1
20260905105548 17 301 0.0 0.0 0.00 0.00 0.00 99 1018.1
20260905105047 17 302 0.0 1.6 0.00 0.00 0.00 99 1018.1
20260905104544 17 304 0.0 0.0 0.00 0.00 0.00 99 1017.9
20260905104043 18 302 0.0 0.0 0.00 0.00 0.00 99 1017.9
20260905103538 18 307 0.0 0.0 0.00 0.00 0.00 99 1017.9
20260905103035 18 302 0.0 0.0 0.00 0.00 0.00 99 1018.0
20260905102530 17 302 0.0 0.0 0.00 0.00 0.00 99 1018.0
20260905102026 18 301 0.0 0.0 0.00 0.00 0.00 99 1017.9
20260905101525 18 310 1.6 1.6 0.00 0.00 0.00 99 1017.8
20260905101023 18 306 0.0 1.6 0.00 0.00 0.00 99 1017.8
20260905100520 18 305 1.6 1.6 0.00 0.00 0.00 99 1017.7
20260905100019 18 302 0.0 1.6 0.00 0.00 0.00 99 1017.8
20260905095514 18 305 1.6 1.6 0.00 0.00 0.00 99 1017.7
20260905095009 18 306 1.6 1.6 0.00 0.00 0.00 99 1017.9
20260905094504 18 317 1.6 3.2 0.00 0.00 0.00 99 1017.8
20260905094003 18 308 1.6 1.6 0.00 0.00 0.00 99 1017.9
20260905093458 17 310 1.6 1.6 0.00 0.00 0.00 99 1017.8